国际通讯卫星 502星 (INTELSAT 502)

导读

INTELSAT 502是国际通信卫星组织(ITSO)第五代系列通信卫星,于1980年12月6日成功发射,作为第五代国际通信卫星,它采用三轴姿态控制技术,新增14/11吉赫频段,结合频率复用技术大幅拓展通信容量,支持多路话路与电视信号传输,部分配置还适配海事通信需求。它的服役完善了全球商用卫星通信网络,推动了跨国通信与广播电视业务的普及,是国际卫星通信发展历程中的重要节点。

基本信息
目录编号:
12089
目录名称:
INTELSAT 502
国际标识:
1980-098A
轨道中心:
EARTH
卫星名称:
国际通讯卫星 502星
卫星全名:
国际通讯卫星 502星 (INTELSAT 502)
卫星状态:
在轨 (已飞行16715 天)
发射日期:
1980-12-06 UTC
国别 :
(ITSO)
星等 :
--
该卫星已列入 空间交会检测服务 Space Conjunction Data Service (SCDS) ,当前飞行风险评估等级: 无高风险
轨道信息
数据来源 国际轨道数据 AOE轨道数据
星历时间 2026-09-11T01:47:43+0800
19小时前
查看轨道信息
2026-09-07T02:00:00+0800
4天前
查看轨道信息
半长轴 42557.146km 42556.945km
偏心率 0.001087 0.001063
轨道倾角 11.177° 11.182°
近地点辐角 310.103° 311.136°
升交点赤经 326.457° 326.484°
平近点角 57.732° 75.692°
近地点 36132.749km 36133.569km
远地点 36225.269km 36224.047km
周期 1456.191分钟 1456.181分钟
每日圈数 0.988881 0.988888
详细信息
卫星平台:
Intelsat V
平衡模式:
三轴稳定
覆盖范围:
全球
运营商:
国际卫星通信公司
运营商所在国:
美国
制造商(研发单位):
福特工程公司
制造商所在国:
美国
使用方式:
暂无
卫星简介
从1965年4月至1984年3月,国际通信卫星组织发射了5代、6种不同性能的卫星共计35颗,除6颗卫星因运载火箭和远地点发动机故障而发射失败外,其余29颗卫星均被送到了预定的静止轨道位置。1984年8月前后,国际通信卫星组织利用部署在大西洋、太平洋、印度洋上空的15颗国际通信卫星,为遍布世界各地170多个国家或地区提供电话、电传、电报、电视和数据传输等电信业务;该卫星已退役。
2D轨道图
3D轨道图
轨道高度分析图
轨道倾角分析图
轨道综合分析图
查看轨道综合分析图
与全量物体交会距离演化趋势
与全量物体交会风险概率演化趋势